,,Stat5,,Stat1,,Stat2,,Stat3,,Stat4,,Wind1,,Wind1,
time,status,PA1M_AVG,status,PR1M_SUM,status,RH1M_AVG,status,SR1M_AVG,status,TA1M_AVG,status,W1dAve1m,status,W1sAve1m,
2002-05-12, 00:00:00,VALID,918.292,VALID,0.2,VALID,96.6814,VALID,0.0339617,VALID,20.108,VALID,188,VALID,1.39844,
2002-05-12, 00:01:00,VALID,918.449,VALID,0.4,VALID,96.9611,VALID,0.0169808,VALID,20.1118,VALID,205,VALID,1.30409,
2002-05-12, 00:02:00,VALID,918.521,VALID,0.2,VALID,97.1264,VALID,0,VALID,20.0792,VALID,198,VALID,0.876172,
2002-05-12, 00:03:00,VALID,918.501,VALID,0,VALID,97.3795,VALID,0,VALID,20.0568,VALID,183,VALID,0.594351,
2002-05-12, 00:04:00,VALID,918.521,VALID,0,VALID,97.5105,VALID,0,VALID,20.028,VALID,225,VALID,0.554276,
2002-05-12, 00:05:00,VALID,918.558,VALID,0,VALID,97.6402,VALID,0.0339617,VALID,19.9887,VALID,168,VALID,0.609375,
2002-05-12, 00:06:00,VALID,918.534,VALID,0.2,VALID,97.761,VALID,0.0169808,VALID,19.9761,VALID,168,VALID,0.620443,
2002-05-12, 00:07:00,VALID,918.525,VALID,0,VALID,97.8195,VALID,0,VALID,19.9632,VALID,139,VALID,1.02872,
2002-05-12, 00:08:00,VALID,918.521,VALID,0,VALID,97.9288,VALID,0,VALID,19.9435,VALID,178,VALID,0.502604,
2002-05-12, 00:09:00,VALID,918.586,VALID,0,VALID,97.9784,VALID,0.0169808,VALID,19.9341,VALID,194,VALID,0.496199,
2002-05-12, 00:10:00,VALID,918.617,VALID,0,VALID,98.0598,VALID,0,VALID,19.9045,VALID,292,VALID,0.68051,
2002-05-12, 00:11:00,VALID,918.638,VALID,0,VALID,98.1501,VALID,0,VALID,19.9246,VALID,167,VALID,0.764423,
2002-05-12, 00:12:00,VALID,918.655,VALID,0,VALID,98.2111,VALID,0,VALID,19.9373,VALID,235,VALID,0.589949,
2002-05-12, 00:13:00,VALID,918.627,VALID,0,VALID,98.2747,VALID,0,VALID,19.9535,VALID,293,VALID,0.262458,
2002-05-12, 00:14:00,VALID,918.565,VALID,0,VALID,98.323,VALID,0,VALID,19.9661,VALID,17,VALID,0.681799,
2002-05-12, 00:15:00,VALID,918.523,VALID,0,VALID,98.384,VALID,0.0169808,VALID,19.9664,VALID,300,VALID,0.335515,
2002-05-12, 00:16:00,VALID,918.51,VALID,0,VALID,98.4044,VALID,0.0339617,VALID,19.9699,VALID,329,VALID,0.549262,
2002-05-12, 00:17:00,VALID,918.467,VALID,0,VALID,98.3955,VALID,0.0169808,VALID,19.9766,VALID,11,VALID,0.84185,
2002-05-12, 00:18:00,VALID,918.398,VALID,0,VALID,98.4502,VALID,0,VALID,19.993,VALID,13,VALID,1.40405,
2002-05-12, 00:19:00,VALID,918.355,VALID,0,VALID,98.4171,VALID,0.0339617,VALID,19.9989,VALID,22,VALID,1.58763,
2002-05-12, 00:20:00,VALID,918.306,VALID,0,VALID,98.3942,VALID,0,VALID,19.983,VALID,18,VALID,1.72944,
2002-05-12, 00:21:00,VALID,918.292,VALID,0,VALID,98.4438,VALID,0.0169808,VALID,19.9989,VALID,17,VALID,2.08073,
2002-05-12, 00:22:00,VALID,918.261,VALID,0,VALID,98.3573,VALID,0,VALID,19.9927,VALID,8,VALID,1.97492,
2002-05-12, 00:23:00,VALID,918.223,VALID,0,VALID,98.2531,VALID,0.0169808,VALID,19.9537,VALID,332,VALID,1.58051,
2002-05-12, 00:24:00,VALID,918.198,VALID,0,VALID,98.1768,VALID,0,VALID,19.9152,VALID,353,VALID,1.12162,
2002-05-12, 00:25:00,VALID,918.202,VALID,0,VALID,98.2137,VALID,0,VALID,19.9025,VALID,357,VALID,0.902238,
2002-05-12, 00:26:00,VALID,918.19,VALID,0,VALID,98.2391,VALID,0,VALID,19.8861,VALID,345,VALID,1.09332,
2002-05-12, 00:27:00,VALID,918.181,VALID,0,VALID,98.2582,VALID,0,VALID,19.8702,VALID,358,VALID,1.24134,
2002-05-12, 00:28:00,VALID,918.15,VALID,0,VALID,98.3764,VALID,-0.0169808,VALID,19.8605,VALID,11,VALID,0.648438,
2002-05-12, 00:29:00,VALID,918.12,VALID,0,VALID,98.4438,VALID,0,VALID,19.8767,VALID,9,VALID,0.473184,
2002-05-12, 00:30:00,VALID,918.088,VALID,0,VALID,98.5048,VALID,-0.0169808,VALID,19.8759,VALID,20,VALID,0.726563,
2002-05-12, 00:31:00,VALID,918.054,VALID,0,VALID,98.5468,VALID,0,VALID,19.8826,VALID,6,VALID,0.363181,
2002-05-12, 00:32:00,VALID,918.02,VALID,0,VALID,98.5697,VALID,0,VALID,19.8896,VALID,29,VALID,0.700802,
2002-05-12, 00:33:00,VALID,917.979,VALID,0,VALID,98.5252,VALID,0,VALID,19.8538,VALID,53,VALID,0.437922,
2002-05-12, 00:34:00,VALID,917.924,VALID,0,VALID,98.515,VALID,0,VALID,19.8476,VALID,55,VALID,0.214949,
2002-05-12, 00:35:00,VALID,917.89,VALID,0,VALID,98.4743,VALID,0,VALID,19.8285,VALID,87,VALID,0.489443,
2002-05-12, 00:36:00,VALID,917.842,VALID,0,VALID,98.5074,VALID,0,VALID,19.8051,VALID,85,VALID,0.487413,
2002-05-12, 00:37:00,VALID,917.802,VALID,0,VALID,98.5163,VALID,0.0169808,VALID,19.8088,VALID,79,VALID,0.36951,
2002-05-12, 00:38:00,VALID,917.769,VALID,0,VALID,98.5621,VALID,-0.0169808,VALID,19.7889,VALID,60,VALID,0.172075,
2002-05-12, 00:39:00,VALID,917.74,VALID,0,VALID,98.5494,VALID,0,VALID,19.7792,VALID,60,VALID,0.28484,
2002-05-12, 00:40:00,VALID,917.732,VALID,0,VALID,98.5888,VALID,0,VALID,19.7763,VALID,60,VALID,0.185033,
2002-05-12, 00:41:00,VALID,917.746,VALID,0,VALID,98.6625,VALID,0,VALID,19.7996,VALID,29,VALID,0.5,
2002-05-12, 00:42:00,VALID,917.752,VALID,0,VALID,98.6867,VALID,0,VALID,19.8056,VALID,12,VALID,0.864515,
2002-05-12, 00:43:00,VALID,917.762,VALID,0,VALID,98.6511,VALID,-0.0169808,VALID,19.7961,VALID,354,VALID,0.830946,
2002-05-12, 00:44:00,VALID,917.745,VALID,0,VALID,98.6574,VALID,0,VALID,19.7802,VALID,334,VALID,0.570313,
2002-05-12, 00:45:00,VALID,917.722,VALID,0,VALID,98.7312,VALID,0,VALID,19.7927,VALID,12,VALID,0.522593,
2002-05-12, 00:46:00,VALID,917.681,VALID,0,VALID,98.721,VALID,0,VALID,19.7996,VALID,5,VALID,0.728733,
2002-05-12, 00:47:00,VALID,917.625,VALID,0,VALID,98.7019,VALID,-0.0169808,VALID,19.7832,VALID,7,VALID,0.832137,
2002-05-12, 00:48:00,VALID,917.579,VALID,0,VALID,98.6969,VALID,0,VALID,19.7768,VALID,8,VALID,1.0026,
2002-05-12, 00:49:00,VALID,917.541,VALID,0,VALID,98.7159,VALID,0,VALID,19.7802,VALID,14,VALID,1.43285,
2002-05-12, 00:50:00,VALID,917.521,VALID,0,VALID,98.7452,VALID,0,VALID,19.78,VALID,16,VALID,1.51254,
2002-05-12, 00:51:00,VALID,917.528,VALID,0,VALID,98.7388,VALID,0,VALID,19.7932,VALID,12,VALID,1.42368,
2002-05-12, 00:52:00,VALID,917.52,VALID,0,VALID,98.7388,VALID,0,VALID,19.7961,VALID,7,VALID,1.27365,
2002-05-12, 00:53:00,VALID,917.54,VALID,0,VALID,98.7528,VALID,0,VALID,19.7932,VALID,3,VALID,1.5378,
2002-05-12, 00:54:00,VALID,917.532,VALID,0,VALID,98.8049,VALID,0,VALID,19.8287,VALID,12,VALID,1.88197,
2002-05-12, 00:55:00,VALID,917.54,VALID,0,VALID,98.8316,VALID,-0.0169808,VALID,19.8541,VALID,18,VALID,1.7728,
2002-05-12, 00:56:00,VALID,917.543,VALID,0,VALID,98.824,VALID,0,VALID,19.9,VALID,12,VALID,1.02539,
2002-05-12, 00:57:00,VALID,917.542,VALID,0,VALID,98.7999,VALID,-0.0169808,VALID,19.903,VALID,8,VALID,1.43117,
2002-05-12, 00:58:00,VALID,917.532,VALID,0,VALID,98.8011,VALID,0,VALID,19.9159,VALID,6,VALID,1.27204,
2002-05-12, 00:59:00,VALID,917.53,VALID,0,VALID,98.796,VALID,-0.0169808,VALID,19.9222,VALID,11,VALID,1.0038,
2002-05-12, 01:00:00,VALID,917.515,VALID,0,VALID,98.7592,VALID,0,VALID,19.9222,VALID,349,VALID,1.28495,
2002-05-12, 01:01:00,VALID,917.503,VALID,0,VALID,98.7452,VALID,0,VALID,19.9318,VALID,348,VALID,1.03506,
2002-05-12, 01:02:00,VALID,917.486,VALID,0,VALID,98.7515,VALID,0,VALID,19.9423,VALID,6,VALID,1.12089,
2002-05-12, 01:03:00,VALID,917.477,VALID,0,VALID,98.796,VALID,-0.0169808,VALID,19.9569,VALID,20,VALID,1.28385,
2002-05-12, 01:04:00,VALID,917.447,VALID,0,VALID,98.791,VALID,-0.0169808,VALID,19.9838,VALID,16,VALID,1.92019,
2002-05-12, 01:05:00,VALID,917.446,VALID,0,VALID,98.7337,VALID,0,VALID,19.993,VALID,14,VALID,1.34291,
2002-05-12, 01:06:00,VALID,917.436,VALID,0,VALID,98.7363,VALID,0,VALID,19.9994,VALID,7,VALID,1.42708,
2002-05-12, 01:07:00,VALID,917.427,VALID,0,VALID,98.7668,VALID,-0.0339617,VALID,20.0121,VALID,2,VALID,1.43159,
2002-05-12, 01:08:00,VALID,917.4,VALID,0,VALID,98.7706,VALID,0,VALID,20.0422,VALID,360,VALID,1.3145,
2002-05-12, 01:09:00,VALID,917.372,VALID,0,VALID,98.7579,VALID,-0.0169808,VALID,20.0516,VALID,15,VALID,1.52703,
2002-05-12, 01:10:00,VALID,917.329,VALID,0,VALID,98.7554,VALID,0,VALID,20.0509,VALID,20,VALID,1.61595,
2002-05-12, 01:11:00,VALID,917.286,VALID,0,VALID,98.7515,VALID,0,VALID,20.0805,VALID,18,VALID,1.39543,
2002-05-12, 01:12:00,VALID,917.301,VALID,0,VALID,98.7172,VALID,0,VALID,20.0807,VALID,16,VALID,1.78294,
2002-05-12, 01:13:00,VALID,917.356,VALID,0,VALID,98.6816,VALID,0,VALID,20.0738,VALID,9,VALID,1.3655,
2002-05-12, 01:14:00,VALID,917.343,VALID,0,VALID,98.6727,VALID,0,VALID,20.0735,VALID,34,VALID,1.26267,
2002-05-12, 01:15:00,VALID,917.249,VALID,0.2,VALID,98.6702,VALID,0,VALID,20.0835,VALID,40,VALID,1.13682,
2002-05-12, 01:16:00,VALID,917.232,VALID,0,VALID,98.6867,VALID,0,VALID,20.1026,VALID,17,VALID,1.27062,
2002-05-12, 01:17:00,VALID,917.312,VALID,0,VALID,98.6714,VALID,0,VALID,20.1068,VALID,353,VALID,0.911529,
2002-05-12, 01:18:00,VALID,917.332,VALID,0,VALID,98.6231,VALID,0,VALID,20.074,VALID,349,VALID,1.26542,
2002-05-12, 01:19:00,VALID,917.333,VALID,0,VALID,98.6536,VALID,0,VALID,20.084,VALID,333,VALID,0.756968,
2002-05-12, 01:20:00,VALID,917.295,VALID,0,VALID,98.6422,VALID,-0.0339617,VALID,20.074,VALID,271,VALID,0.716694,
2002-05-12, 01:21:00,VALID,917.26,VALID,0,VALID,98.646,VALID,0.0169808,VALID,20.071,VALID,318,VALID,0.448918,
2002-05-12, 01:22:00,VALID,917.247,VALID,0,VALID,98.6829,VALID,0,VALID,20.0802,VALID,348,VALID,0.272615,
2002-05-12, 01:23:00,VALID,917.195,VALID,0,VALID,98.7159,VALID,-0.0169808,VALID,20.0929,VALID,37,VALID,0.422526,
2002-05-12, 01:24:00,VALID,917.196,VALID,0,VALID,98.7223,VALID,0,VALID,20.1128,VALID,352,VALID,0.399493,
2002-05-12, 01:25:00,VALID,917.276,VALID,0,VALID,98.6816,VALID,0,VALID,20.0966,VALID,307,VALID,0.493243,
2002-05-12, 01:26:00,VALID,917.352,VALID,0,VALID,98.7121,VALID,0.0169808,VALID,20.0926,VALID,322,VALID,0.0798611,
2002-05-12, 01:27:00,VALID,917.331,VALID,0,VALID,98.707,VALID,0,VALID,20.0899,VALID,37,VALID,0.788851,
2002-05-12, 01:28:00,VALID,917.283,VALID,0,VALID,98.7375,VALID,0,VALID,20.1058,VALID,24,VALID,0.614383,
2002-05-12, 01:29:00,VALID,917.328,VALID,0,VALID,98.7528,VALID,0,VALID,20.1023,VALID,286,VALID,0.312078,
2002-05-12, 01:30:00,VALID,917.302,VALID,0,VALID,98.7528,VALID,0.0169808,VALID,20.1026,VALID,144,VALID,0.38014,
2002-05-12, 01:31:00,VALID,917.233,VALID,0,VALID,98.7795,VALID,0,VALID,20.1192,VALID,143,VALID,0.434495,
2002-05-12, 01:32:00,VALID,917.232,VALID,0,VALID,98.7337,VALID,0,VALID,20.0994,VALID,171,VALID,0.300042,
2002-05-12, 01:33:00,VALID,917.276,VALID,0,VALID,98.7325,VALID,0.0339617,VALID,20.0733,VALID,225,VALID,0.772382,
2002-05-12, 01:34:00,VALID,917.339,VALID,0,VALID,98.7325,VALID,0.0169808,VALID,20.0447,VALID,240,VALID,1.26056,
2002-05-12, 01:35:00,VALID,917.408,VALID,0,VALID,98.735,VALID,0.0169808,VALID,20.0218,VALID,231,VALID,0.747677,
2002-05-12, 01:36:00,VALID,917.413,VALID,0,VALID,98.7846,VALID,0.0169808,VALID,20.0183,VALID,205,VALID,0.540148,
2002-05-12, 01:37:00,VALID,917.414,VALID,0,VALID,98.8151,VALID,0.0169808,VALID,20.0153,VALID,247,VALID,0.499578,
2002-05-12, 01:38:00,VALID,917.38,VALID,0,VALID,98.8418,VALID,0,VALID,20.0318,VALID,256,VALID,0.0789263,
2002-05-12, 01:39:00,VALID,917.352,VALID,0,VALID,98.8965,VALID,0.0509425,VALID,20.0315,VALID,124,VALID,0.323057,
2002-05-12, 01:40:00,VALID,917.308,VALID,0,VALID,98.9079,VALID,0.0169808,VALID,20.038,VALID,103,VALID,0.535773,
2002-05-12, 01:41:00,VALID,917.252,VALID,0,VALID,98.9105,VALID,0.0169808,VALID,20.0511,VALID,145,VALID,0.328526,
2002-05-12, 01:42:00,VALID,917.193,VALID,0,VALID,98.9079,VALID,0.0169808,VALID,20.0449,VALID,132,VALID,0.592105,
2002-05-12, 01:43:00,VALID,917.143,VALID,0,VALID,98.9054,VALID,0.0169808,VALID,20.0352,VALID,113,VALID,0.550564,
2002-05-12, 01:44:00,VALID,917.098,VALID,0,VALID,98.9105,VALID,0,VALID,20.0188,VALID,88,VALID,0.849873,
2002-05-12, 01:45:00,VALID,917.062,VALID,0,VALID,98.9194,VALID,0,VALID,19.9992,VALID,85,VALID,0.738809,
2002-05-12, 01:46:00,VALID,917.056,VALID,0,VALID,98.9207,VALID,-0.0169808,VALID,19.9828,VALID,97,VALID,0.651476,
2002-05-12, 01:47:00,VALID,917.047,VALID,0,VALID,98.941,VALID,0,VALID,19.9771,VALID,97,VALID,0.355363,
2002-05-12, 01:48:00,VALID,917.034,VALID,0.2,VALID,98.9575,VALID,0,VALID,19.9642,VALID,98,VALID,0.252003,
2002-05-12, 01:49:00,VALID,917.038,VALID,0,VALID,98.9779,VALID,0,VALID,19.9634,VALID,99,VALID,0.145059,
2002-05-12, 01:50:00,VALID,917.062,VALID,0,VALID,98.9868,VALID,0,VALID,19.9607,VALID,99,VALID,0.185238,
2002-05-12, 01:51:00,VALID,917.078,VALID,0,VALID,98.9957,VALID,0,VALID,19.9609,VALID,99,VALID,0.297676,
2002-05-12, 01:52:00,VALID,917.072,VALID,0,VALID,98.9842,VALID,0,VALID,19.9512,VALID,100,VALID,0.256334,
2002-05-12, 01:53:00,VALID,917.06,VALID,0,VALID,98.9906,VALID,0.0339617,VALID,19.9348,VALID,100,VALID,0.426731,
2002-05-12, 01:54:00,VALID,917.044,VALID,0,VALID,98.9804,VALID,0,VALID,19.9052,VALID,115,VALID,0.523649,
2002-05-12, 01:55:00,VALID,917.041,VALID,0,VALID,98.9868,VALID,0.0509425,VALID,19.8993,VALID,115,VALID,0.634713,
2002-05-12, 01:56:00,VALID,917.029,VALID,0,VALID,99.0084,VALID,0.0339617,VALID,19.8963,VALID,110,VALID,0.368924,
2002-05-12, 01:57:00,VALID,917.014,VALID,0,VALID,99.0262,VALID,0.0339617,VALID,19.8866,VALID,108,VALID,0.451647,
2002-05-12, 01:58:00,VALID,917.004,VALID,0,VALID,99.044,VALID,0.0169808,VALID,19.8695,VALID,123,VALID,0.453325,
2002-05-12, 01:59:00,VALID,916.993,VALID,0,VALID,99.0466,VALID,0,VALID,19.8859,VALID,149,VALID,0.911106,
2002-05-12, 02:00:00,VALID,916.975,VALID,0,VALID,99.0631,VALID,0.0339617,VALID,19.8893,VALID,150,VALID,1.06086,
2002-05-12, 02:01:00,VALID,916.958,VALID,0,VALID,99.0758,VALID,0,VALID,19.8864,VALID,143,VALID,0.828926,
2002-05-12, 02:02:00,VALID,916.925,VALID,0,VALID,99.0936,VALID,0.0169808,VALID,19.8799,VALID,145,VALID,0.948191,
2002-05-12, 02:03:00,VALID,916.898,VALID,0,VALID,99.1025,VALID,0,VALID,19.8931,VALID,146,VALID,0.483724,
2002-05-12, 02:04:00,VALID,916.869,VALID,0,VALID,99.1216,VALID,0.0339617,VALID,19.8861,VALID,137,VALID,0.637247,
2002-05-12, 02:05:00,VALID,916.854,VALID,0,VALID,99.1356,VALID,0.0169808,VALID,19.8958,VALID,125,VALID,0.413218,
2002-05-12, 02:06:00,VALID,916.82,VALID,0,VALID,99.1305,VALID,-0.0169808,VALID,19.8995,VALID,124,VALID,0.590712,
2002-05-12, 02:07:00,VALID,916.788,VALID,0,VALID,99.1292,VALID,0,VALID,19.8993,VALID,130,VALID,0.569257,
2002-05-12, 02:08:00,VALID,916.78,VALID,0,VALID,99.1445,VALID,0.0509425,VALID,19.8961,VALID,120,VALID,0.337139,
2002-05-12, 02:09:00,VALID,916.802,VALID,0,VALID,99.1508,VALID,0,VALID,19.9062,VALID,124,VALID,0.140625,
2002-05-12, 02:10:00,VALID,916.816,VALID,0,VALID,99.1674,VALID,0.0169808,VALID,19.9057,VALID,115,VALID,0.218133,
2002-05-12, 02:11:00,VALID,916.802,VALID,0,VALID,99.1546,VALID,0,VALID,19.9023,VALID,106,VALID,0.661258,
2002-05-12, 02:12:00,VALID,916.776,VALID,0,VALID,99.1635,VALID,-0.0169808,VALID,19.8928,VALID,117,VALID,0.853885,
2002-05-12, 02:13:00,VALID,916.747,VALID,0,VALID,99.147,VALID,0,VALID,19.8906,VALID,113,VALID,1.14696,
2002-05-12, 02:14:00,VALID,916.731,VALID,0,VALID,99.1419,VALID,0,VALID,19.864,VALID,114,VALID,0.688767,
2002-05-12, 02:15:00,VALID,916.722,VALID,0.2,VALID,99.161,VALID,0.0169808,VALID,19.8603,VALID,118,VALID,0.579392,
2002-05-12, 02:16:00,VALID,916.678,VALID,0,VALID,99.1546,VALID,0,VALID,19.8575,VALID,123,VALID,1.12109,
2002-05-12, 02:17:00,VALID,916.616,VALID,0,VALID,99.161,VALID,0,VALID,19.8449,VALID,124,VALID,0.775338,
2002-05-12, 02:18:00,VALID,916.6,VALID,0.2,VALID,99.1635,VALID,0,VALID,19.8481,VALID,142,VALID,0.63121,
2002-05-12, 02:19:00,VALID,916.637,VALID,0,VALID,99.1737,VALID,-0.0169808,VALID,19.8416,VALID,148,VALID,0.193834,
2002-05-12, 02:20:00,VALID,916.721,VALID,0.2,VALID,99.1966,VALID,0,VALID,19.8511,VALID,235,VALID,0.547286,
2002-05-12, 02:21:00,VALID,916.815,VALID,0.2,VALID,99.2131,VALID,-0.0169808,VALID,19.8734,VALID,257,VALID,0.853165,
2002-05-12, 02:22:00,VALID,916.947,VALID,0.4,VALID,99.2297,VALID,0,VALID,19.8998,VALID,243,VALID,1.00802,
2002-05-12, 02:23:00,VALID,917.057,VALID,0.6,VALID,99.2449,VALID,-0.0169808,VALID,19.8963,VALID,237,VALID,1.10135,
2002-05-12, 02:24:00,VALID,917.147,VALID,0.8,VALID,99.2475,VALID,-0.0169808,VALID,19.9162,VALID,242,VALID,1.0378,
2002-05-12, 02:25:00,VALID,917.189,VALID,0.8,VALID,99.25,VALID,-0.0169808,VALID,19.9057,VALID,249,VALID,1.18264,
2002-05-12, 02:26:00,VALID,917.215,VALID,0.6,VALID,99.2691,VALID,0.0169808,VALID,19.9453,VALID,291,VALID,1.03168,
2002-05-12, 02:27:00,VALID,917.092,VALID,0.4,VALID,99.264,VALID,0,VALID,19.9547,VALID,327,VALID,1.58488,
2002-05-12, 02:28:00,VALID,916.985,VALID,0.2,VALID,99.2716,VALID,0,VALID,19.945,VALID,227,VALID,2.65124,
2002-05-12, 02:29:00,VALID,916.986,VALID,0.2,VALID,99.2538,VALID,0,VALID,19.9612,VALID,321,VALID,2.89886,
2002-05-12, 02:30:00,VALID,916.949,VALID,0.2,VALID,99.2398,VALID,0,VALID,19.9905,VALID,15,VALID,1.6433,
2002-05-12, 02:31:00,VALID,916.947,VALID,0.2,VALID,99.2335,VALID,0.0169808,VALID,20.0094,VALID,24,VALID,2.58674,
2002-05-12, 02:32:00,VALID,916.97,VALID,0,VALID,99.2322,VALID,0,VALID,20.0161,VALID,348,VALID,0.949747,
2002-05-12, 02:33:00,VALID,916.984,VALID,0.2,VALID,99.2309,VALID,0.0169808,VALID,20.0126,VALID,11,VALID,1.20144,
2002-05-12, 02:34:00,VALID,916.997,VALID,0,VALID,99.2195,VALID,0.0169808,VALID,19.993,VALID,21,VALID,1.86592,
2002-05-12, 02:35:00,VALID,916.95,VALID,0,VALID,99.1763,VALID,0.0339617,VALID,19.9386,VALID,6,VALID,2.76014,
2002-05-12, 02:36:00,VALID,916.856,VALID,0,VALID,99.1496,VALID,-0.0339617,VALID,19.8839,VALID,23,VALID,3.72418,
2002-05-12, 02:37:00,VALID,916.835,VALID,0,VALID,99.1165,VALID,0,VALID,19.8319,VALID,13,VALID,2.34269,
2002-05-12, 02:38:00,VALID,916.864,VALID,0,VALID,99.1152,VALID,0.0169808,VALID,19.8056,VALID,22,VALID,3.09696,
2002-05-12, 02:39:00,VALID,916.862,VALID,0,VALID,99.105,VALID,0,VALID,19.7865,VALID,17,VALID,3.19932,
2002-05-12, 02:40:00,VALID,916.846,VALID,0,VALID,99.1165,VALID,0,VALID,19.7636,VALID,26,VALID,2.53865,
2002-05-12, 02:41:00,VALID,916.954,VALID,0,VALID,99.1139,VALID,0,VALID,19.7437,VALID,146,VALID,1.10116,
2002-05-12, 02:42:00,VALID,917.066,VALID,0,VALID,99.1203,VALID,0.0169808,VALID,19.7348,VALID,216,VALID,0.810033,
2002-05-12, 02:43:00,VALID,917.121,VALID,0,VALID,99.1228,VALID,0,VALID,19.735,VALID,132,VALID,0.875868,
2002-05-12, 02:44:00,VALID,917.132,VALID,0,VALID,99.1292,VALID,0,VALID,19.7221,VALID,151,VALID,0.213682,
2002-05-12, 02:45:00,VALID,917.131,VALID,0,VALID,99.147,VALID,0,VALID,19.6995,VALID,285,VALID,1.10663,
2002-05-12, 02:46:00,VALID,917.06,VALID,0,VALID,99.1572,VALID,0,VALID,19.7057,VALID,22,VALID,2.11675,
2002-05-12, 02:47:00,VALID,916.99,VALID,0.2,VALID,99.1674,VALID,0.0339617,VALID,19.689,VALID,18,VALID,2.25274,
2002-05-12, 02:48:00,VALID,916.934,VALID,0,VALID,99.1674,VALID,0,VALID,19.6803,VALID,10,VALID,2.28265,
2002-05-12, 02:49:00,VALID,916.925,VALID,0,VALID,99.1623,VALID,0,VALID,19.6609,VALID,22,VALID,1.5891,
2002-05-12, 02:50:00,VALID,916.956,VALID,0,VALID,99.1546,VALID,0,VALID,19.6187,VALID,6,VALID,0.652344,
2002-05-12, 02:51:00,VALID,917.014,VALID,0,VALID,99.1419,VALID,0,VALID,19.6058,VALID,56,VALID,0.639824,
2002-05-12, 02:52:00,VALID,917.078,VALID,0,VALID,99.1368,VALID,0,VALID,19.6033,VALID,146,VALID,0.491554,
2002-05-12, 02:53:00,VALID,917.151,VALID,0,VALID,99.1623,VALID,0,VALID,19.5931,VALID,221,VALID,0.828336,
2002-05-12, 02:54:00,VALID,917.226,VALID,0,VALID,99.1915,VALID,0,VALID,19.606,VALID,200,VALID,0.953336,
2002-05-12, 02:55:00,VALID,917.228,VALID,0,VALID,99.2017,VALID,0,VALID,19.6254,VALID,89,VALID,0.175465,
2002-05-12, 02:56:00,VALID,917.196,VALID,0,VALID,99.2042,VALID,-0.0169808,VALID,19.6286,VALID,185,VALID,0.56684,
2002-05-12, 02:57:00,VALID,917.215,VALID,0,VALID,99.1852,VALID,0,VALID,19.5804,VALID,240,VALID,1.34375,
2002-05-12, 02:58:00,VALID,917.196,VALID,0,VALID,99.1368,VALID,0,VALID,19.521,VALID,225,VALID,1.47636,
2002-05-12, 02:59:00,VALID,917.185,VALID,0,VALID,99.1063,VALID,0,VALID,19.5382,VALID,256,VALID,0.5,
2002-05-12, 03:00:00,VALID,917.144,VALID,0,VALID,99.1114,VALID,0.0169808,VALID,19.5441,VALID,7,VALID,0.41838,
2002-05-12, 03:01:00,VALID,917.142,VALID,0,VALID,99.1165,VALID,0,VALID,19.5705,VALID,201,VALID,1.37059,
2002-05-12, 03:02:00,VALID,917.162,VALID,0,VALID,98.9703,VALID,0,VALID,19.4902,VALID,202,VALID,1.57299,
2002-05-12, 03:03:00,VALID,917.099,VALID,0,VALID,98.5926,VALID,0,VALID,19.396,VALID,189,VALID,2.08659,
2002-05-12, 03:04:00,VALID,917.108,VALID,0,VALID,98.4858,VALID,0,VALID,19.3379,VALID,214,VALID,1.55194,
2002-05-12, 03:05:00,VALID,917.106,VALID,0,VALID,98.4311,VALID,0,VALID,19.325,VALID,246,VALID,0.862542,
2002-05-12, 03:06:00,VALID,917.129,VALID,0,VALID,98.4324,VALID,-0.0169808,VALID,19.3451,VALID,287,VALID,0.634983,
2002-05-12, 03:07:00,VALID,917.126,VALID,0,VALID,98.5048,VALID,0,VALID,19.3607,VALID,14,VALID,0.151394,
2002-05-12, 03:08:00,VALID,917.14,VALID,0,VALID,98.5608,VALID,-0.0169808,VALID,19.3799,VALID,180,VALID,0.886819,
2002-05-12, 03:09:00,VALID,917.206,VALID,0,VALID,98.6129,VALID,-0.0169808,VALID,19.3896,VALID,181,VALID,0.913429,
2002-05-12, 03:10:00,VALID,917.239,VALID,0,VALID,98.7159,VALID,0,VALID,19.4216,VALID,230,VALID,0.666118,
2002-05-12, 03:11:00,VALID,917.259,VALID,0,VALID,98.7515,VALID,0,VALID,19.4383,VALID,291,VALID,0.571915,
2002-05-12, 03:12:00,VALID,917.287,VALID,0,VALID,98.7681,VALID,0,VALID,19.4383,VALID,259,VALID,0.284206,
2002-05-12, 03:13:00,VALID,917.315,VALID,0,VALID,98.8469,VALID,0,VALID,19.451,VALID,296,VALID,0.262669,
2002-05-12, 03:14:00,VALID,917.318,VALID,0.4,VALID,98.941,VALID,0,VALID,19.4835,VALID,23,VALID,1.45017,
2002-05-12, 03:15:00,VALID,917.328,VALID,0.6,VALID,98.9855,VALID,0,VALID,19.5126,VALID,19,VALID,1.43898,
2002-05-12, 03:16:00,VALID,917.322,VALID,0.2,VALID,99.0033,VALID,0,VALID,19.522,VALID,33,VALID,1.04818,
2002-05-12, 03:17:00,VALID,917.298,VALID,0.4,VALID,99.0338,VALID,-0.0169808,VALID,19.5387,VALID,8,VALID,0.326014,
2002-05-12, 03:18:00,VALID,917.262,VALID,0.2,VALID,99.0287,VALID,-0.0169808,VALID,19.5188,VALID,138,VALID,0.503606,
2002-05-12, 03:19:00,VALID,917.251,VALID,0.4,VALID,99.0275,VALID,0,VALID,19.4925,VALID,156,VALID,0.0107686,
2002-05-12, 03:20:00,VALID,917.272,VALID,0.4,VALID,99.0186,VALID,0,VALID,19.4676,VALID,161,VALID,0.0775082,
2002-05-12, 03:21:00,VALID,917.285,VALID,0.2,VALID,98.997,VALID,0,VALID,19.4159,VALID,287,VALID,0.295272,
2002-05-12, 03:22:00,VALID,917.271,VALID,0.2,VALID,98.9995,VALID,0,VALID,19.3866,VALID,298,VALID,0.127056,
2002-05-12, 03:23:00,VALID,917.247,VALID,0.2,VALID,99.03,VALID,-0.0169808,VALID,19.364,VALID,25,VALID,1.39084,
2002-05-12, 03:24:00,VALID,917.242,VALID,0,VALID,99.0694,VALID,-0.0339617,VALID,19.3607,VALID,20,VALID,1.87183,
2002-05-12, 03:25:00,VALID,917.236,VALID,0.2,VALID,99.0733,VALID,-0.0679233,VALID,19.3485,VALID,17,VALID,1.95101,
2002-05-12, 03:26:00,VALID,916.805,VALID,0.2,VALID,99.0694,VALID,-0.0849042,VALID,19.3187,VALID,19,VALID,1.09527,
2002-05-12, 03:27:00,VALID,917.274,VALID,0,VALID,99.0809,VALID,-0.0169808,VALID,19.2894,VALID,360,VALID,0.854941,
2002-05-12, 03:28:00,VALID,917.319,VALID,0.2,VALID,99.0974,VALID,-0.0679233,VALID,19.2834,VALID,347,VALID,1.33994,
2002-05-12, 03:29:00,VALID,917.324,VALID,0.2,VALID,99.0911,VALID,-0.0339617,VALID,19.2541,VALID,8,VALID,1.394,
2002-05-12, 03:30:00,VALID,917.285,VALID,0.2,VALID,99.1,VALID,-0.0339617,VALID,19.235,VALID,21,VALID,1.15769,
2002-05-12, 03:31:00,VALID,917.206,VALID,0.2,VALID,99.0949,VALID,-0.0169808,VALID,19.199,VALID,19,VALID,1.19772,
2002-05-12, 03:32:00,VALID,917.17,VALID,0.2,VALID,99.1165,VALID,-0.0169808,VALID,19.193,VALID,355,VALID,1.26288,
2002-05-12, 03:33:00,VALID,917.221,VALID,0,VALID,99.1203,VALID,-0.0849042,VALID,19.1669,VALID,349,VALID,1.10515,
2002-05-12, 03:34:00,VALID,917.297,VALID,0.2,VALID,99.1432,VALID,-0.0339617,VALID,19.1639,VALID,3,VALID,0.722128,
2002-05-12, 03:35:00,VALID,917.339,VALID,0.2,VALID,99.1737,VALID,-0.0169808,VALID,19.1537,VALID,4,VALID,0.578125,
2002-05-12, 03:36:00,VALID,917.382,VALID,0.2,VALID,99.1941,VALID,-0.0339617,VALID,19.1672,VALID,19,VALID,0.661024,
2002-05-12, 03:37:00,VALID,917.403,VALID,0.2,VALID,99.222,VALID,0,VALID,19.1957,VALID,296,VALID,0.505912,
2002-05-12, 03:38:00,VALID,917.434,VALID,0.4,VALID,99.2449,VALID,-0.0679233,VALID,19.1995,VALID,230,VALID,0.30008,